Tracking 17154 objects as of 3-August-2015
HD Live streaming from Space Station

SL-8 R/B

Track SL-8 R/B now!
10-day predictions
SL-8 R/B is classified as:


NORAD ID: 6271
Int'l Code: 1972-087J
Perigee: 1,474.0 km
Apogee: 1,599.9 km
Inclination: 74.0 °
Period: 116.6 minutes
Semi major axis: 7907 km
RCS: 6.2723 m2 (large)
Launch date: November 1, 1972
Source: Commonwealth of Independent States (former USSR) (CIS)

Note: This is a ROCKET BODY
Your satellite tracking list
Your tracking list is empty





NASA's NSSDC Master Catalog

Two Line Element Set (TLE):
1 06271U 72087J   15215.13378716  .00000021  00000-0  28276-3 0  9991
2 06271 074.0407 097.4030 0079639 136.8168 336.8542 12.34549678926939

Source of the keplerian elements: AFSPC

N2YO: 389